• MPC Preparation (Info)

  • MPEC 2022-X95 : 2022 WO14

    The following Minor Planet Electronic Circular may be linked-to from your own Web pages, but must not otherwise be redistributed electronically.

    A form allowing access to any MPEC is at the bottom of this page.


    Read MPEC 2022-X94 Read MPEC 2022-X96


    M.P.E.C. 2022-X95                             Issued 2022 December 14, 16:55 UT
    
         The Minor Planet Electronic Circulars contain information on unusual
             minor planets, routine data on comets and natural satellites,
             and occasional editorial announcements.  They are published
        on behalf of Division F of the International Astronomical Union by the
              Minor Planet Center, Smithsonian Astrophysical Observatory,
                              Cambridge, MA 02138, U.S.A.
    			  
                 Prepared using the Tamkin Foundation Computer Network
    
                                  MPC@CFA.HARVARD.EDU
                URL https://www.minorplanetcenter.net/    ISSN 1523-6714
    
                                    2022 WO14                                
    
    
    Observations:
         K22W14O* S2022 11 29.69029 00 00 23.59 +01 20 03.7          19   RLEX095C51
         K22W14O  s2022 11 29.69029 1 + 6790.8151 +  460.3487 +  654.8289   EX095C51
         K22W14O  S2022 11 29.88576 00 00 22.75 +01 43 13.5                LEX095C51
         K22W14O  s2022 11 29.88576 1 + 6788.5616 +  482.1035 +  661.9514   EX095C51
         K22W14O  S2022 11 29.95096 00 00 22.40 +01 50 57.0                LEX095C51
         K22W14O  s2022 11 29.95096 1 + 6785.2439 +  485.6079 +  692.0570   EX095C51
         K22W14O  S2022 11 30.01615 00 00 22.24 +01 58 39.8                LEX095C51
         K22W14O  s2022 11 30.01615 1 + 6781.8681 +  488.8876 +  723.2882   EX095C51
         K22W14O  S2022 11 30.14655 00 00 21.76 +02 14 02.9                LEX095C51
         K22W14O  s2022 11 30.14655 1 + 6774.5393 +  495.7888 +  783.6020   EX095C51
         K22W14O  S2022 11 30.21162 00 00 21.58 +02 21 44.5                LEX095C51
         K22W14O  s2022 11 30.21162 1 + 6779.3943 +  510.5280 +  730.9620   EX095C51
         K22W14O  S2022 11 30.40721 00 00 21.28 +02 44 45.0          19   RLEX095C51
         K22W14O  s2022 11 30.40721 1 + 6768.0273 +  520.7610 +  821.7064   EX095C51
         K22W14O  S2022 11 30.47240 00 00 21.07 +02 52 25.6                LEX095C51
         K22W14O  s2022 11 30.47240 1 + 6763.9651 +  524.1275 +  851.9773   EX095C51
         K22W14O  S2022 11 30.60267 00 00 20.88 +03 07 41.1                LEX095C51
         K22W14O  s2022 11 30.60267 1 + 6765.2895 +  542.2711 +  829.8626   EX095C51
         K22W14O  S2022 11 30.66787 00 00 20.83 +03 15 19.3                LEX095C51
         K22W14O  s2022 11 30.66787 1 + 6761.1711 +  545.6099 +  860.2025   EX095C51
         K22W14O  S2022 11 30.73307 00 00 20.74 +03 22 58.8                LEX095C51
         K22W14O  s2022 11 30.73307 1 + 6756.9050 +  548.9236 +  890.5526   EX095C51
         K22W14O  S2022 11 30.79826 00 00 20.62 +03 30 34.0                LEX095C51
         K22W14O  s2022 11 30.79826 1 + 6752.5099 +  552.2177 +  920.8836   EX095C51
         K22W14O 0C2022 12 14.22129500 06 15.361+26 09 22.74         22.44GVEX095T14
         K22W14O 0C2022 12 14.22227700 06 15.405+26 09 27.76         22.34GVEX095T14
         K22W14O 0C2022 12 14.22325700 06 15.444+26 09 32.64         22.26GVEX095T14
    
    Observer details:
    C51 WISE.  Observer Near-Earth Object Wide-field Infrared Survey Explorer.
        Measurers A. K. Mainzer, J. M. Bauer, T. Grav, J. R. Masiero, R. M. Cutri,
        J. W. Dailey, J. Pittichova, E. L. Wright.
    T14 Canada-France-Hawaii Telescope, Maunakea.  Observer H. Januszewski.
        Measurer D. J. Tholen.  3.6-m f/4.1 reflector + 1024 x 2306 pixels
        Megacam.
    
    Orbital elements:
    2022 WO14                                                Earth MOID = 0.1503 AU
    Epoch 2023 Feb. 25.0 TT = JDT 2460000.5                 Bell                    
    M  21.88980              (2000.0)            P               Q                  
    n   0.24578190     Peri.  358.88457     +0.62180465     -0.68389027             
    a   2.5240781      Node    52.52799     +0.72221887     +0.31223780             
    e   0.5481689      Incl.   28.74244     +0.30291727     +0.65939492             
    P   4.01           H   21.24          G   0.15           U   9                  
    Residuals in seconds of arc
    221129 C51  0.3-  0.4-    221130 C51  0.4-  0.7+    221130 C51  0.2-  1.0+
    221129 C51  0.4+  0.7-    221130 C51  1.9+  0.2+    221130 C51  1.6-  1.2-
    221129 C51  0.9-  0.0     221130 C51  0.4+  1.3+    221214 T14  0.0   0.1-
    221130 C51  0.3+  0.4+    221130 C51  0.3+  0.6-    221214 T14  0.0   0.0
    221130 C51  0.5-  0.1-    221130 C51  0.5+  0.6-    221214 T14  0.0   0.0
    
    Ephemeris:
    2022 WO14                a,e,i = 2.52, 0.55, 29                  q = 1.1405
    Date    TT    R. A. (2000) Decl.     Delta      r    Elong.  Phase     V
    2022 11 14    00 11 04.3 -29 34 18   0.3065  1.1524   114.9    51.2    20.9
    ...
    2022 11 29    00 00 28.2 -00 02 14   0.2999  1.1405   113.7    52.4    20.8
    ...
    2022 12 07    00 01 37.4 +14 55 08   0.3277  1.1455   111.3    53.3    21.1
    ...
    2022 12 13    00 05 14.4 +24 25 04   0.3602  1.1544   109.2    53.6    21.3
    2022 12 14    00 06 04.0 +25 50 41   0.3664  1.1563   108.9    53.7    21.3
    2022 12 15    00 06 57.4 +27 13 41   0.3728  1.1584   108.6    53.7    21.4
    ...
    2022 12 21    00 13 39.1 +34 39 53   0.4147  1.1729   106.8    53.4    21.6
    ...
    2022 12 29    00 26 19.3 +42 36 05   0.4775  1.1982   104.8    52.5    22.0
    ...
    2023 01 13    01 02 27.6 +53 08 34   0.6081  1.2619   102.3    49.6    22.5
    
    M. P. C. Staff               (C) Copyright 2022 MPC           M.P.E.C. 2022-X95
    


    Read MPEC 2022-X94 Read MPEC 2022-X96


    MPEC number:

    Enter an MPEC number in one of the following forms:

    • 1997-B01 (the full form)
    • J97B01 (the packed version of the full form)
    • B01 (the abbreviated form)